Time,TemperatureF,DewpointF,PressureIn,WindDirection,WindDirectionDegrees,WindSpeedMPH,WindSpeedGustMPH,Humidity,HourlyPrecipIn,Conditions,Clouds,dailyrainin,SolarRadiationWatts/m^2,SoftwareType,DateUTC
2013-06-26 00:01:00,63.9,62.1,29.73,South,172,0.0,0.0,94,0.00,CLR,,0.00,0.0,WeatherDisplay:10.37,2013-06-26 05:01:00,
2013-06-26 00:06:00,63.8,62.0,29.73,South,172,0.0,0.0,94,0.00,CLR,,0.00,0.0,WeatherDisplay:10.37,2013-06-26 05:06:00,
2013-06-26 00:11:00,63.7,61.9,29.73,South,172,0.0,0.0,94,0.00,CLR,,0.00,0.0,WeatherDisplay:10.37,2013-06-26 05:11:00,
2013-06-26 00:16:00,63.6,61.8,29.73,South,172,0.0,0.0,94,0.00,CLR,,0.00,0.0,WeatherDisplay:10.37,2013-06-26 05:16:00,
2013-06-26 00:21:00,63.4,61.6,29.73,South,172,0.0,0.0,94,0.00,CLR,,0.00,0.0,WeatherDisplay:10.37,2013-06-26 05:21:00,
2013-06-26 00:26:00,63.3,61.5,29.73,South,172,0.0,0.0,94,0.00,CLR,,0.00,0.0,WeatherDisplay:10.37,2013-06-26 05:26:00,
2013-06-26 00:31:00,63.3,61.5,29.73,South,172,0.0,0.0,94,0.00,CLR,,0.00,0.0,WeatherDisplay:10.37,2013-06-26 05:31:00,
2013-06-26 00:36:00,63.2,61.4,29.73,South,172,0.0,0.0,94,0.00,CLR,,0.00,0.0,WeatherDisplay:10.37,2013-06-26 05:36:00,
2013-06-26 00:41:00,63.0,61.2,29.73,South,172,0.0,0.0,94,0.00,CLR,,0.00,0.0,WeatherDisplay:10.37,2013-06-26 05:41:00,
2013-06-26 00:46:00,62.9,61.1,29.73,South,172,0.0,0.0,94,0.00,CLR,,0.00,0.0,WeatherDisplay:10.37,2013-06-26 05:46:00,
2013-06-26 00:51:00,62.8,61.0,29.73,South,172,0.0,0.0,94,0.00,CLR,,0.00,0.0,WeatherDisplay:10.37,2013-06-26 05:51:00,
2013-06-26 00:56:00,62.7,60.9,29.73,South,172,0.0,0.0,94,0.00,CLR,,0.00,0.0,WeatherDisplay:10.37,2013-06-26 05:56:00,
2013-06-26 01:01:00,62.6,60.8,29.73,South,172,0.0,0.0,94,0.00,CLR,,0.00,0.0,WeatherDisplay:10.37,2013-06-26 06:01:00,
2013-06-26 01:06:00,62.5,60.7,29.73,South,172,0.0,0.0,94,0.00,CLR,,0.00,0.0,WeatherDisplay:10.37,2013-06-26 06:06:00,
2013-06-26 01:11:00,62.4,60.7,29.72,South,172,0.0,0.0,94,0.00,CLR,,0.00,0.0,WeatherDisplay:10.37,2013-06-26 06:11:00,
2013-06-26 01:16:00,62.3,60.8,29.72,South,172,0.0,0.0,95,0.00,CLR,,0.00,0.0,WeatherDisplay:10.37,2013-06-26 06:16:00,
2013-06-26 01:21:00,62.3,60.8,29.72,South,172,0.0,0.0,95,0.00,CLR,,0.00,0.0,WeatherDisplay:10.37,2013-06-26 06:21:00,
2013-06-26 01:26:00,62.3,60.8,29.72,South,172,0.0,0.0,95,0.00,CLR,,0.00,0.0,WeatherDisplay:10.37,2013-06-26 06:26:00,
2013-06-26 01:32:00,62.2,60.8,29.73,South,172,0.0,0.0,95,0.00,CLR,,0.00,0.0,WeatherDisplay:10.37,2013-06-26 06:32:00,
2013-06-26 01:37:00,62.2,60.8,29.72,South,172,0.0,0.0,95,0.00,CLR,,0.00,0.0,WeatherDisplay:10.37,2013-06-26 06:37:00,
2013-06-26 01:42:00,62.1,60.7,29.72,South,172,0.0,0.0,95,0.00,CLR,,0.00,0.0,WeatherDisplay:10.37,2013-06-26 06:42:00,
2013-06-26 01:47:00,62.0,60.6,29.72,South,172,0.0,0.0,95,0.00,CLR,,0.00,0.0,WeatherDisplay:10.37,2013-06-26 06:47:00,
2013-06-26 01:52:00,62.0,60.6,29.72,South,172,0.0,0.0,95,0.00,CLR,,0.00,0.0,WeatherDisplay:10.37,2013-06-26 06:52:00,
2013-06-26 01:57:00,61.9,60.5,29.71,South,172,0.0,0.0,95,0.00,CLR,,0.00,0.0,WeatherDisplay:10.37,2013-06-26 06:57:00,
2013-06-26 02:02:00,61.9,60.5,29.71,South,172,0.0,0.0,95,0.00,CLR,,0.00,0.0,WeatherDisplay:10.37,2013-06-26 07:02:00,
2013-06-26 02:07:00,61.8,60.4,29.71,South,172,0.0,0.0,95,0.00,CLR,,0.00,0.0,WeatherDisplay:10.37,2013-06-26 07:07:00,
2013-06-26 02:12:00,61.8,60.4,29.71,South,172,0.0,0.0,95,0.00,CLR,,0.00,0.0,WeatherDisplay:10.37,2013-06-26 07:12:00,
2013-06-26 02:17:00,61.8,60.4,29.70,South,172,0.0,0.0,95,0.00,CLR,,0.00,0.0,WeatherDisplay:10.37,2013-06-26 07:17:00,
2013-06-26 02:22:00,61.8,60.6,29.70,South,172,0.0,0.0,96,0.00,CLR,,0.00,0.0,WeatherDisplay:10.37,2013-06-26 07:22:00,
2013-06-26 02:27:00,61.8,60.6,29.70,South,172,0.0,0.0,96,0.00,CLR,,0.00,0.0,WeatherDisplay:10.37,2013-06-26 07:27:00,
2013-06-26 02:32:00,61.8,60.6,29.70,South,172,0.0,0.0,96,0.00,CLR,,0.00,0.0,WeatherDisplay:10.37,2013-06-26 07:32:00,
2013-06-26 02:37:00,61.8,60.6,29.70,South,172,0.0,0.0,96,0.00,CLR,,0.00,0.0,WeatherDisplay:10.37,2013-06-26 07:37:00,
2013-06-26 02:42:00,61.8,60.6,29.70,South,172,0.0,0.0,96,0.00,CLR,,0.00,0.0,WeatherDisplay:10.37,2013-06-26 07:42:00,
2013-06-26 02:47:00,61.8,60.6,29.70,South,172,0.0,0.0,96,0.00,CLR,,0.00,0.0,WeatherDisplay:10.37,2013-06-26 07:47:00,
2013-06-26 02:52:00,61.8,60.6,29.70,South,172,0.0,0.0,96,0.00,CLR,,0.00,0.0,WeatherDisplay:10.37,2013-06-26 07:52:00,
2013-06-26 02:57:00,61.8,60.6,29.70,South,172,0.0,0.0,96,0.00,CLR,,0.00,0.0,WeatherDisplay:10.37,2013-06-26 07:57:00,
2013-06-26 03:02:00,61.7,60.5,29.69,South,172,0.0,0.0,96,0.00,CLR,,0.00,0.0,WeatherDisplay:10.37,2013-06-26 08:02:00,
2013-06-26 03:07:00,61.7,60.5,29.70,South,172,0.0,0.0,96,0.00,CLR,,0.00,0.0,WeatherDisplay:10.37,2013-06-26 08:07:00,
2013-06-26 03:12:00,61.6,60.4,29.70,South,172,0.0,0.0,96,0.00,CLR,,0.00,0.0,WeatherDisplay:10.37,2013-06-26 08:12:00,
2013-06-26 03:17:00,61.6,60.4,29.70,South,172,0.0,0.0,96,0.00,CLR,,0.00,0.0,WeatherDisplay:10.37,2013-06-26 08:17:00,
2013-06-26 03:22:00,61.6,60.4,29.70,South,172,0.0,0.0,96,0.00,CLR,,0.00,0.0,WeatherDisplay:10.37,2013-06-26 08:22:00,
2013-06-26 03:27:00,61.6,60.4,29.70,South,172,0.0,0.0,96,0.00,CLR,,0.00,0.0,WeatherDisplay:10.37,2013-06-26 08:27:00,
2013-06-26 03:32:00,61.6,60.4,29.70,South,172,0.0,0.0,96,0.00,CLR,,0.00,0.0,WeatherDisplay:10.37,2013-06-26 08:32:00,
2013-06-26 03:37:00,61.6,60.4,29.70,South,172,0.0,0.0,96,0.00,CLR,,0.00,0.0,WeatherDisplay:10.37,2013-06-26 08:37:00,
2013-06-26 03:42:00,61.5,60.3,29.70,South,172,0.0,0.0,96,0.00,CLR,,0.00,0.0,WeatherDisplay:10.37,2013-06-26 08:42:00,
2013-06-26 03:47:00,61.5,60.3,29.70,South,172,0.0,0.0,96,0.00,CLR,,0.00,0.0,WeatherDisplay:10.37,2013-06-26 08:47:00,
2013-06-26 03:52:00,61.5,60.3,29.70,South,172,0.0,0.0,96,0.00,CLR,,0.00,0.0,WeatherDisplay:10.37,2013-06-26 08:52:00,
2013-06-26 03:57:00,61.6,60.4,29.70,South,172,0.0,0.0,96,0.00,CLR,,0.00,0.0,WeatherDisplay:10.37,2013-06-26 08:57:00,
2013-06-26 04:02:00,61.6,60.4,29.70,South,172,0.0,0.0,96,0.00,CLR,,0.00,0.0,WeatherDisplay:10.37,2013-06-26 09:02:00,
2013-06-26 04:07:00,61.7,60.5,29.70,South,172,0.0,0.0,96,0.00,CLR,,0.00,0.0,WeatherDisplay:10.37,2013-06-26 09:07:00,
2013-06-26 04:12:00,61.7,60.5,29.70,South,172,0.0,0.0,96,0.00,CLR,,0.00,0.0,WeatherDisplay:10.37,2013-06-26 09:12:00,
2013-06-26 04:17:00,61.7,60.5,29.70,South,172,0.0,0.0,96,0.00,CLR,,0.00,0.0,WeatherDisplay:10.37,2013-06-26 09:17:00,
2013-06-26 04:22:00,61.7,60.5,29.70,South,172,0.0,0.0,96,0.00,CLR,,0.00,0.0,WeatherDisplay:10.37,2013-06-26 09:22:00,
2013-06-26 04:23:00,61.7,60.5,29.70,South,172,0.0,0.0,96,0.00,CLR,,0.00,0.0,WeatherDisplay:10.37,2013-06-26 09:23:00,
2013-06-26 04:28:00,61.6,60.4,29.70,South,172,0.0,0.0,96,0.00,CLR,,0.00,0.0,WeatherDisplay:10.37,2013-06-26 09:28:00,
2013-06-26 04:33:00,61.6,60.4,29.71,South,172,0.0,0.0,96,0.00,CLR,,0.00,0.0,WeatherDisplay:10.37,2013-06-26 09:33:00,
2013-06-26 04:38:00,61.6,60.4,29.71,South,172,0.0,0.0,96,0.00,CLR,,0.00,0.0,WeatherDisplay:10.37,2013-06-26 09:38:00,
2013-06-26 04:43:00,61.6,60.4,29.71,South,172,0.0,0.0,96,0.00,CLR,,0.00,0.0,WeatherDisplay:10.37,2013-06-26 09:43:00,
2013-06-26 04:48:00,61.6,60.4,29.71,South,172,0.0,0.0,96,0.00,CLR,,0.00,0.0,WeatherDisplay:10.37,2013-06-26 09:48:00,
2013-06-26 04:53:00,61.6,60.4,29.71,South,172,0.0,0.0,96,0.00,CLR,,0.00,0.0,WeatherDisplay:10.37,2013-06-26 09:53:00,
2013-06-26 04:58:00,61.7,60.5,29.71,South,172,0.0,0.0,96,0.00,CLR,,0.00,0.0,WeatherDisplay:10.37,2013-06-26 09:58:00,
2013-06-26 05:03:00,61.8,60.6,29.71,South,172,0.0,0.0,96,0.00,OVC,,0.00,0.0,WeatherDisplay:10.37,2013-06-26 10:03:00,
2013-06-26 05:08:00,62.0,61.1,29.71,South,171,0.0,0.0,97,0.00,OVC,,0.00,0.0,WeatherDisplay:10.37,2013-06-26 10:08:00,
2013-06-26 05:13:00,62.1,61.2,29.71,South,172,0.0,0.0,97,0.00,OVC,,0.00,0.0,WeatherDisplay:10.37,2013-06-26 10:13:00,
2013-06-26 05:18:00,62.2,61.3,29.71,South,172,0.0,0.0,97,0.00,OVC,,0.00,0.0,WeatherDisplay:10.37,2013-06-26 10:18:00,
2013-06-26 05:23:00,62.3,61.4,29.71,South,172,0.0,0.0,97,0.00,OVC,,0.00,0.0,WeatherDisplay:10.37,2013-06-26 10:23:00,
2013-06-26 05:28:00,62.4,61.5,29.71,South,172,0.0,0.0,97,0.00,OVC,,0.00,0.0,WeatherDisplay:10.37,2013-06-26 10:28:00,
2013-06-26 05:33:00,62.6,61.7,29.70,South,172,0.0,0.0,97,0.00,BKN,,0.00,0.0,WeatherDisplay:10.37,2013-06-26 10:33:00,
2013-06-26 05:38:00,62.7,61.8,29.70,South,172,0.0,0.0,97,0.00,BKN,,0.00,5.0,WeatherDisplay:10.37,2013-06-26 10:38:00,
2013-06-26 05:43:00,62.8,61.9,29.69,South,172,0.0,0.0,97,0.00,BKN,,0.00,7.0,WeatherDisplay:10.37,2013-06-26 10:43:00,
2013-06-26 05:48:00,62.9,62.0,29.69,South,171,0.0,0.0,97,0.00,BKN,,0.00,9.0,WeatherDisplay:10.37,2013-06-26 10:48:00,
2013-06-26 05:53:00,63.2,62.3,29.69,South,172,0.0,0.0,97,0.00,BKN,,0.00,11.0,WeatherDisplay:10.37,2013-06-26 10:53:00,
2013-06-26 05:58:00,63.5,62.9,29.69,South,172,0.0,0.0,98,0.00,BKN,,0.00,11.0,WeatherDisplay:10.37,2013-06-26 10:58:00,
2013-06-26 06:03:00,63.8,63.2,29.68,South,172,0.0,0.0,98,0.00,BKN,,0.00,12.0,WeatherDisplay:10.37,2013-06-26 11:03:00,
2013-06-26 06:08:00,64.1,63.5,29.69,South,172,1.0,1.0,98,0.00,BKN,,0.00,14.0,WeatherDisplay:10.37,2013-06-26 11:08:00,
2013-06-26 06:13:00,64.3,63.7,29.69,South,172,0.0,0.0,98,0.00,BKN,,0.00,12.0,WeatherDisplay:10.37,2013-06-26 11:13:00,
2013-06-26 06:18:00,64.4,63.8,29.69,South,171,0.0,0.0,98,0.00,BKN,,0.00,19.0,WeatherDisplay:10.37,2013-06-26 11:18:00,
2013-06-26 06:23:00,64.4,63.5,29.69,South,172,0.0,0.0,97,0.00,BKN,,0.00,21.0,WeatherDisplay:10.37,2013-06-26 11:23:00,
2013-06-26 06:28:00,64.5,63.6,29.68,South,172,0.0,0.0,97,0.00,BKN,,0.00,26.0,WeatherDisplay:10.37,2013-06-26 11:28:00,
2013-06-26 06:33:00,64.6,63.7,29.67,South,172,0.0,0.0,97,0.00,BKN,,0.00,32.0,WeatherDisplay:10.37,2013-06-26 11:33:00,
2013-06-26 06:38:00,64.7,64.1,29.67,South,172,0.0,0.0,98,0.00,BKN,,0.00,33.0,WeatherDisplay:10.37,2013-06-26 11:38:00,
2013-06-26 06:43:00,65.3,64.7,29.68,South,172,0.0,0.0,98,0.00,BKN,,0.00,33.0,WeatherDisplay:10.37,2013-06-26 11:43:00,
2013-06-26 06:48:00,65.6,65.0,29.67,South,172,0.0,0.0,98,0.00,BKN,,0.00,39.0,WeatherDisplay:10.37,2013-06-26 11:48:00,
2013-06-26 06:53:00,65.8,65.2,29.67,South,172,0.0,0.0,98,0.00,BKN,,0.00,40.0,WeatherDisplay:10.37,2013-06-26 11:53:00,
2013-06-26 06:58:00,65.9,65.3,29.67,South,172,0.0,0.0,98,0.00,BKN,,0.00,44.0,WeatherDisplay:10.37,2013-06-26 11:58:00,
2013-06-26 07:03:00,66.1,65.5,29.67,South,172,0.0,0.0,98,0.00,BKN,,0.00,44.0,WeatherDisplay:10.37,2013-06-26 12:03:00,
2013-06-26 07:08:00,66.2,65.6,29.67,South,172,0.0,0.0,98,0.00,BKN,,0.00,39.0,WeatherDisplay:10.37,2013-06-26 12:08:00,
2013-06-26 07:13:00,66.7,66.1,29.67,South,172,0.0,0.0,98,0.00,BKN,,0.00,49.0,WeatherDisplay:10.37,2013-06-26 12:13:00,
2013-06-26 07:18:00,66.8,66.2,29.68,South,172,0.0,0.0,98,0.00,OVC,,0.00,56.0,WeatherDisplay:10.37,2013-06-26 12:18:00,
2013-06-26 07:23:00,66.9,66.3,29.69,South,172,0.0,0.0,98,0.00,OVC,,0.00,63.0,WeatherDisplay:10.37,2013-06-26 12:23:00,
2013-06-26 07:28:00,67.1,66.5,29.69,South,172,0.0,0.0,98,0.00,OVC,,0.00,67.0,WeatherDisplay:10.37,2013-06-26 12:28:00,
2013-06-26 07:33:00,67.3,66.7,29.69,South,172,0.0,0.0,98,0.00,OVC,,0.00,74.0,WeatherDisplay:10.37,2013-06-26 12:33:00,
2013-06-26 07:38:00,67.5,66.9,29.69,South,172,0.0,0.0,98,0.00,OVC,,0.00,84.0,WeatherDisplay:10.37,2013-06-26 12:38:00,
2013-06-26 07:43:00,67.7,67.1,29.69,South,172,0.0,0.0,98,0.00,OVC,,0.00,77.0,WeatherDisplay:10.37,2013-06-26 12:43:00,
2013-06-26 07:48:00,68.1,67.5,29.69,South,172,1.1,0.0,98,0.00,OVC,,0.00,77.0,WeatherDisplay:10.37,2013-06-26 12:48:00,
2013-06-26 07:53:00,68.6,68.0,29.68,South,172,0.0,0.1,98,0.00,OVC,,0.00,88.0,WeatherDisplay:10.37,2013-06-26 12:53:00,
2013-06-26 07:58:00,68.6,68.0,29.68,South,171,0.0,0.0,98,0.00,OVC,,0.00,72.0,WeatherDisplay:10.37,2013-06-26 12:58:00,
2013-06-26 08:03:00,68.8,68.2,29.68,South,172,0.0,0.0,98,0.00,OVC,,0.00,90.0,WeatherDisplay:10.37,2013-06-26 13:03:00,
2013-06-26 08:08:00,69.3,68.7,29.68,South,172,0.0,0.0,98,0.00,OVC,,0.00,109.0,WeatherDisplay:10.37,2013-06-26 13:08:00,
2013-06-26 08:09:00,69.3,68.7,29.68,South,172,0.0,0.0,98,0.00,OVC,,0.00,109.0,WeatherDisplay:10.37,2013-06-26 13:09:00,
2013-06-26 08:14:00,69.5,68.9,29.68,South,172,0.0,0.0,98,0.00,OVC,,0.00,104.0,WeatherDisplay:10.37,2013-06-26 13:14:00,
2013-06-26 08:19:00,69.9,69.3,29.68,South,172,1.1,0.0,98,0.00,OVC,,0.00,128.0,WeatherDisplay:10.37,2013-06-26 13:19:00,
2013-06-26 08:24:00,70.3,69.7,29.68,South,172,0.0,0.0,98,0.00,OVC,,0.00,111.0,WeatherDisplay:10.37,2013-06-26 13:24:00,
2013-06-26 08:29:00,70.8,70.2,29.68,South,172,1.1,1.1,98,0.00,OVC,,0.00,107.0,WeatherDisplay:10.37,2013-06-26 13:29:00,
2013-06-26 08:34:00,71.0,70.4,29.67,South,172,1.1,1.1,98,0.00,OVC,,0.00,149.0,WeatherDisplay:10.37,2013-06-26 13:34:00,
2013-06-26 08:39:00,71.3,71.0,29.68,South,171,3.5,3.5,99,0.00,OVC,,0.00,120.0,WeatherDisplay:10.37,2013-06-26 13:39:00,
2013-06-26 08:44:00,71.5,70.9,29.67,South,171,2.3,2.3,98,0.00,OVC,,0.00,149.0,WeatherDisplay:10.37,2013-06-26 13:44:00,
2013-06-26 08:49:00,71.8,71.2,29.67,South,171,0.0,0.0,98,0.00,OVC,,0.00,137.0,WeatherDisplay:10.37,2013-06-26 13:49:00,
2013-06-26 08:54:00,72.0,71.4,29.67,South,171,1.1,1.1,98,0.00,OVC,,0.00,155.0,WeatherDisplay:10.37,2013-06-26 13:54:00,
2013-06-26 08:59:00,72.3,71.7,29.67,South,171,2.3,2.3,98,0.00,OVC,,0.00,137.0,WeatherDisplay:10.37,2013-06-26 13:59:00,
2013-06-26 09:04:00,72.4,71.8,29.67,South,169,1.1,1.1,98,0.00,FEW,,0.00,139.0,WeatherDisplay:10.37,2013-06-26 14:04:00,
2013-06-26 09:09:00,72.7,72.1,29.67,South,169,1.1,1.1,98,0.00,FEW,,0.00,158.0,WeatherDisplay:10.37,2013-06-26 14:09:00,
2013-06-26 09:14:00,72.9,72.0,29.67,SW,227,3.5,3.5,97,0.00,FEW,,0.00,165.0,WeatherDisplay:10.37,2013-06-26 14:14:00,
2013-06-26 09:19:00,73.3,72.1,29.67,South,172,1.1,1.1,96,0.00,FEW,,0.00,204.0,WeatherDisplay:10.37,2013-06-26 14:19:00,
2013-06-26 09:24:00,73.7,72.2,29.66,South,175,2.3,2.3,95,0.00,FEW,,0.00,171.0,WeatherDisplay:10.37,2013-06-26 14:24:00,
2013-06-26 09:29:00,74.1,72.6,29.67,South,174,3.5,3.5,95,0.00,FEW,,0.00,178.0,WeatherDisplay:10.37,2013-06-26 14:29:00,
2013-06-26 09:34:00,74.4,72.2,29.66,SE,129,3.5,3.5,93,0.00,FEW,,0.00,200.0,WeatherDisplay:10.37,2013-06-26 14:34:00,
2013-06-26 09:39:00,74.7,72.5,29.67,SW,230,2.3,2.3,93,0.00,FEW,,0.00,148.0,WeatherDisplay:10.37,2013-06-26 14:39:00,
2013-06-26 09:44:00,75.0,72.5,29.67,WSW,242,6.9,6.9,92,0.00,FEW,,0.00,181.0,WeatherDisplay:10.37,2013-06-26 14:44:00,
2013-06-26 09:49:00,75.1,72.6,29.67,SSE,159,3.5,3.5,92,0.00,FEW,,0.00,213.0,WeatherDisplay:10.37,2013-06-26 14:49:00,
2013-06-26 09:54:00,75.2,72.7,29.67,SSE,167,8.1,8.1,92,0.00,FEW,,0.00,206.0,WeatherDisplay:10.37,2013-06-26 14:54:00,
2013-06-26 09:59:00,75.3,72.8,29.68,South,169,1.1,1.1,92,0.00,FEW,,0.00,162.0,WeatherDisplay:10.37,2013-06-26 14:59:00,
2013-06-26 10:04:00,75.5,72.4,29.68,SE,141,3.5,3.5,90,0.00,BKN,,0.00,195.0,WeatherDisplay:10.37,2013-06-26 15:04:00,
2013-06-26 10:09:00,75.7,72.6,29.68,South,175,5.8,5.8,90,0.00,BKN,,0.00,216.0,WeatherDisplay:10.37,2013-06-26 15:09:00,
2013-06-26 10:14:00,75.8,72.7,29.68,ESE,119,3.5,3.5,90,0.00,BKN,,0.00,185.0,WeatherDisplay:10.37,2013-06-26 15:14:00,
2013-06-26 10:19:00,75.9,72.8,29.68,West,266,4.0,4.0,90,0.00,BKN,,0.00,232.0,WeatherDisplay:10.37,2013-06-26 15:19:00,
2013-06-26 10:24:00,76.1,73.0,29.68,SW,214,3.5,3.5,90,0.00,BKN,,0.00,204.0,WeatherDisplay:10.37,2013-06-26 15:24:00,
2013-06-26 10:29:00,76.2,73.1,29.68,West,268,8.1,8.1,90,0.00,BKN,,0.00,257.0,WeatherDisplay:10.37,2013-06-26 15:29:00,
2013-06-26 10:34:00,76.3,72.8,29.68,South,182,3.5,3.5,89,0.00,BKN,,0.00,167.0,WeatherDisplay:10.37,2013-06-26 15:34:00,
2013-06-26 10:39:00,76.5,72.7,29.68,SSE,159,3.5,3.5,88,0.00,BKN,,0.00,130.0,WeatherDisplay:10.37,2013-06-26 15:39:00,
2013-06-26 10:44:00,76.6,72.8,29.68,SSE,156,4.0,4.0,88,0.00,BKN,,0.00,283.0,WeatherDisplay:10.37,2013-06-26 15:44:00,
2013-06-26 10:49:00,76.8,73.0,29.68,SSE,165,1.1,0.0,88,0.00,BKN,,0.00,214.0,WeatherDisplay:10.37,2013-06-26 15:49:00,
2013-06-26 10:54:00,77.1,72.9,29.68,ESE,111,3.5,3.5,87,0.00,BKN,,0.00,274.0,WeatherDisplay:10.37,2013-06-26 15:54:00,
2013-06-26 10:59:00,77.2,73.0,29.68,SSW,192,5.8,5.8,87,0.00,BKN,,0.00,172.0,WeatherDisplay:10.37,2013-06-26 15:59:00,
2013-06-26 11:04:00,77.3,73.1,29.68,SSE,167,3.5,3.5,87,0.00,FEW,,0.00,264.0,WeatherDisplay:10.37,2013-06-26 16:04:00,
2013-06-26 11:09:00,77.2,72.7,29.68,SSW,198,8.1,8.1,86,0.00,FEW,,0.00,114.0,WeatherDisplay:10.37,2013-06-26 16:09:00,
2013-06-26 11:14:00,77.1,72.9,29.69,SW,233,3.0,3.0,87,0.00,FEW,,0.00,236.0,WeatherDisplay:10.37,2013-06-26 16:14:00,
2013-06-26 11:19:00,77.1,72.9,29.68,SSW,200,1.1,1.1,87,0.00,FEW,,0.00,255.0,WeatherDisplay:10.37,2013-06-26 16:19:00,
2013-06-26 11:24:00,77.1,72.9,29.68,SSE,159,3.5,3.5,87,0.00,FEW,,0.00,297.0,WeatherDisplay:10.37,2013-06-26 16:24:00,
2013-06-26 11:29:00,77.2,72.7,29.68,SSW,194,5.8,5.8,86,0.00,FEW,,0.00,199.0,WeatherDisplay:10.37,2013-06-26 16:29:00,
2013-06-26 11:34:00,77.3,73.1,29.68,South,188,3.5,3.5,87,0.00,BKN,,0.00,202.0,WeatherDisplay:10.37,2013-06-26 16:34:00,
2013-06-26 11:39:00,77.4,73.2,29.69,WNW,293,4.6,4.6,87,0.00,BKN,,0.00,107.0,WeatherDisplay:10.37,2013-06-26 16:39:00,
2013-06-26 11:44:00,77.3,73.5,29.68,ESE,123,1.1,1.1,88,0.00,BKN,,0.00,251.0,WeatherDisplay:10.37,2013-06-26 16:44:00,
2013-06-26 11:49:00,77.3,73.1,29.68,SSE,152,3.0,3.0,87,0.00,BKN,,0.00,271.0,WeatherDisplay:10.37,2013-06-26 16:49:00,
2013-06-26 11:54:00,77.4,73.6,29.68,South,184,3.5,3.5,88,0.00,BKN,,0.00,279.0,WeatherDisplay:10.37,2013-06-26 16:54:00,
2013-06-26 11:59:00,77.5,73.3,29.67,West,264,3.5,3.5,87,0.00,BKN,,0.00,251.0,WeatherDisplay:10.37,2013-06-26 16:59:00,
2013-06-26 12:04:00,77.7,73.5,29.67,West,269,3.0,3.0,87,0.00,BKN,,0.00,209.0,WeatherDisplay:10.37,2013-06-26 17:04:00,
2013-06-26 12:09:00,77.8,73.3,29.68,SSE,168,3.5,3.5,86,0.00,BKN,,0.00,185.0,WeatherDisplay:10.37,2013-06-26 17:09:00,
2013-06-26 12:14:00,77.7,73.2,29.67,South,170,4.0,4.0,86,0.00,BKN,,0.00,218.0,WeatherDisplay:10.37,2013-06-26 17:14:00,
2013-06-26 12:19:00,77.8,73.3,29.67,SSE,156,3.5,3.5,86,0.00,OVC,,0.00,584.0,WeatherDisplay:10.37,2013-06-26 17:19:00,
2013-06-26 12:24:00,78.5,74.3,29.67,East,96,8.1,8.1,87,0.00,OVC,,0.00,526.0,WeatherDisplay:10.37,2013-06-26 17:24:00,
2013-06-26 12:29:00,79.3,74.4,29.66,South,177,2.3,2.3,85,0.00,OVC,,0.00,972.0,WeatherDisplay:10.37,2013-06-26 17:29:00,
2013-06-26 12:34:00,80.4,74.4,29.66,SW,217,3.5,3.5,82,0.00,OVC,,0.00,1042.0,WeatherDisplay:10.37,2013-06-26 17:34:00,
2013-06-26 12:39:00,81.1,73.6,29.66,SW,215,3.5,3.5,78,0.00,OVC,,0.00,214.0,WeatherDisplay:10.37,2013-06-26 17:39:00,
2013-06-26 12:44:00,81.2,73.7,29.66,SSW,206,3.5,3.5,78,0.00,OVC,,0.00,255.0,WeatherDisplay:10.37,2013-06-26 17:44:00,
2013-06-26 12:49:00,81.7,75.3,29.66,East,99,2.3,2.3,81,0.00,OVC,,0.00,1014.0,WeatherDisplay:10.37,2013-06-26 17:49:00,
2013-06-26 12:54:00,82.2,74.3,29.66,SSW,205,3.5,3.5,77,0.00,OVC,,0.00,956.0,WeatherDisplay:10.37,2013-06-26 17:54:00,
2013-06-26 12:59:00,82.7,73.2,29.67,SE,136,3.5,3.5,73,0.00,OVC,,0.00,884.0,WeatherDisplay:10.37,2013-06-26 17:59:00,
2013-06-26 13:04:00,83.2,74.8,29.67,South,169,4.6,4.6,76,0.00,OVC,,0.00,877.0,WeatherDisplay:10.37,2013-06-26 18:04:00,
2013-06-26 13:09:00,83.7,72.9,29.67,South,191,4.6,4.6,70,0.00,OVC,,0.00,847.0,WeatherDisplay:10.37,2013-06-26 18:09:00,
2013-06-26 13:15:00,83.9,73.9,29.67,South,186,2.0,2.0,72,0.00,OVC,,0.00,707.0,WeatherDisplay:10.37,2013-06-26 18:15:00,
2013-06-26 13:20:00,84.1,72.8,29.67,SE,134,3.5,3.5,69,0.00,BKN,,0.00,499.0,WeatherDisplay:10.37,2013-06-26 18:20:00,
2013-06-26 13:25:00,84.0,73.6,29.67,SW,220,4.6,4.6,71,0.00,BKN,,0.00,341.0,WeatherDisplay:10.37,2013-06-26 18:25:00,
2013-06-26 13:30:00,83.6,74.4,29.66,SSE,168,3.5,3.5,74,0.00,BKN,,0.00,294.0,WeatherDisplay:10.37,2013-06-26 18:30:00,
2013-06-26 13:35:00,83.0,73.4,29.65,ENE,70,1.1,1.1,73,0.00,BKN,,0.00,195.0,WeatherDisplay:10.37,2013-06-26 18:35:00,
2013-06-26 13:40:00,82.7,73.6,29.65,SSE,161,3.5,3.5,74,0.00,BKN,,0.00,141.0,WeatherDisplay:10.37,2013-06-26 18:40:00,
2013-06-26 13:45:00,82.0,72.9,29.65,SSE,148,1.1,1.1,74,0.00,BKN,,0.00,100.0,WeatherDisplay:10.37,2013-06-26 18:45:00,
2013-06-26 13:50:00,81.4,73.1,29.65,SE,130,3.5,3.5,76,0.00,BKN,,0.00,77.0,WeatherDisplay:10.37,2013-06-26 18:50:00,
2013-06-26 13:55:00,81.0,73.5,29.65,SSE,148,1.1,1.1,78,0.00,BKN,,0.00,62.0,WeatherDisplay:10.37,2013-06-26 18:55:00,
2013-06-26 14:00:00,80.4,72.5,29.65,ESE,117,3.5,3.5,77,0.00,BKN,,0.00,49.0,WeatherDisplay:10.37,2013-06-26 19:00:00,
2013-06-26 14:05:00,79.9,72.0,29.64,South,170,2.3,2.3,77,0.00,-RA,,0.00,40.0,WeatherDisplay:10.37,2013-06-26 19:05:00,
2013-06-26 14:10:00,79.6,72.5,29.65,South,170,0.0,0.0,79,0.00,-RA,,0.00,37.0,WeatherDisplay:10.37,2013-06-26 19:10:00,
2013-06-26 14:15:00,79.3,73.0,29.65,SSW,209,2.3,2.3,81,0.00,-RA,,0.00,35.0,WeatherDisplay:10.37,2013-06-26 19:15:00,
2013-06-26 14:20:00,78.9,72.9,29.65,SSW,209,1.1,0.0,82,0.00,BKN,,0.00,37.0,WeatherDisplay:10.37,2013-06-26 19:20:00,
2013-06-26 14:25:00,78.5,72.9,29.66,SSW,206,2.3,0.0,83,0.00,BKN,,0.00,33.0,WeatherDisplay:10.37,2013-06-26 19:25:00,
2013-06-26 14:30:00,78.2,72.6,29.66,SSW,206,1.1,0.0,83,0.00,BKN,,0.00,28.0,WeatherDisplay:10.37,2013-06-26 19:30:00,
2013-06-26 14:35:00,77.8,72.6,29.67,SSW,206,0.0,0.0,84,0.00,-RA,,0.00,26.0,WeatherDisplay:10.37,2013-06-26 19:35:00,
2013-06-26 14:40:00,77.5,73.0,29.66,SSW,206,1.1,1.1,86,0.00,-RA,,0.00,21.0,WeatherDisplay:10.37,2013-06-26 19:40:00,
2013-06-26 14:45:00,77.0,72.5,29.66,SE,145,0.0,0.0,86,0.00,-RA,,0.00,21.0,WeatherDisplay:10.37,2013-06-26 19:45:00,
2013-06-26 14:50:00,76.5,72.7,29.65,SE,145,1.1,0.0,88,0.00,-RA,,0.00,21.0,WeatherDisplay:10.37,2013-06-26 19:50:00,
2013-06-26 14:55:00,75.9,72.4,29.67,SE,145,0.0,0.0,89,0.00,-RA,,0.00,23.0,WeatherDisplay:10.37,2013-06-26 19:55:00,
2013-06-26 15:00:00,75.7,72.9,29.66,SE,145,1.1,1.1,91,0.01,-RA,,0.01,30.0,WeatherDisplay:10.37,2013-06-26 20:00:00,
2013-06-26 15:05:00,75.5,72.7,29.67,SW,226,0.0,0.6,91,0.01,RA,,0.01,40.0,WeatherDisplay:10.37,2013-06-26 20:05:00,
2013-06-26 15:10:00,75.3,72.5,29.67,WSW,238,3.5,3.5,91,0.01,BKN,,0.01,30.0,WeatherDisplay:10.37,2013-06-26 20:10:00,
2013-06-26 15:15:00,75.1,72.6,29.67,SSW,200,1.1,1.1,92,0.01,BKN,,0.01,39.0,WeatherDisplay:10.37,2013-06-26 20:15:00,
2013-06-26 15:20:00,75.0,72.5,29.67,WSW,252,0.0,0.0,92,0.01,BKN,,0.01,46.0,WeatherDisplay:10.37,2013-06-26 20:20:00,
2013-06-26 15:25:00,75.0,72.8,29.68,WSW,253,0.0,0.0,93,0.01,BKN,,0.01,46.0,WeatherDisplay:10.37,2013-06-26 20:25:00,
2013-06-26 15:30:00,75.0,72.8,29.68,WSW,256,1.1,0.0,93,0.01,BKN,,0.01,30.0,WeatherDisplay:10.37,2013-06-26 20:30:00,
2013-06-26 15:35:00,74.9,72.7,29.68,WSW,256,1.0,1.0,93,0.01,OVC,,0.01,49.0,WeatherDisplay:10.37,2013-06-26 20:35:00,
2013-06-26 15:40:00,74.8,73.0,29.68,WSW,256,0.0,0.0,94,0.01,OVC,,0.01,65.0,WeatherDisplay:10.37,2013-06-26 20:40:00,
2013-06-26 15:45:00,74.7,72.5,29.68,WSW,256,0.0,0.0,93,0.01,OVC,,0.01,56.0,WeatherDisplay:10.37,2013-06-26 20:45:00,
2013-06-26 15:50:00,74.6,72.8,29.68,WSW,256,0.0,0.0,94,0.01,OVC,,0.01,44.0,WeatherDisplay:10.37,2013-06-26 20:50:00,
2013-06-26 15:55:00,74.5,72.7,29.69,WSW,256,0.0,0.0,94,0.01,OVC,,0.01,37.0,WeatherDisplay:10.37,2013-06-26 20:55:00,
2013-06-26 16:00:00,74.4,72.6,29.69,WSW,256,1.0,1.0,94,0.00,OVC,,0.01,39.0,WeatherDisplay:10.37,2013-06-26 21:00:00,
2013-06-26 16:05:00,74.2,71.7,29.69,WSW,256,0.0,0.0,92,0.00,BKN,,0.01,37.0,WeatherDisplay:10.37,2013-06-26 21:05:00,
2013-06-26 16:10:00,73.9,71.4,29.68,WSW,256,0.0,0.0,92,0.00,BKN,,0.01,62.0,WeatherDisplay:10.37,2013-06-26 21:10:00,
2013-06-26 16:15:00,73.7,70.9,29.67,WSW,256,0.0,0.0,91,0.00,BKN,,0.01,83.0,WeatherDisplay:10.37,2013-06-26 21:15:00,
2013-06-26 16:20:00,73.4,70.9,29.67,WSW,256,0.0,0.0,92,0.00,SCT,,0.01,84.0,WeatherDisplay:10.37,2013-06-26 21:20:00,
2013-06-26 16:25:00,73.2,70.7,29.67,WSW,256,0.0,0.0,92,0.00,SCT,,0.01,127.0,WeatherDisplay:10.37,2013-06-26 21:25:00,
2013-06-26 16:30:00,73.2,70.4,29.67,WSW,256,0.0,0.0,91,0.00,SCT,,0.01,167.0,WeatherDisplay:10.37,2013-06-26 21:30:00,
2013-06-26 16:35:00,73.2,70.4,29.67,WSW,256,0.0,0.0,91,0.00,SCT,,0.01,195.0,WeatherDisplay:10.37,2013-06-26 21:35:00,
2013-06-26 16:40:00,73.3,70.5,29.67,WSW,256,0.0,0.2,91,0.00,SCT,,0.01,278.0,WeatherDisplay:10.37,2013-06-26 21:40:00,
2013-06-26 16:45:00,73.6,70.8,29.68,WSW,257,1.1,1.1,91,0.00,SCT,,0.01,234.0,WeatherDisplay:10.37,2013-06-26 21:45:00,
2013-06-26 16:50:00,73.9,70.8,29.68,ESE,103,1.1,1.1,90,0.00,SCT,,0.01,236.0,WeatherDisplay:10.37,2013-06-26 21:50:00,
2013-06-26 16:55:00,74.3,70.8,29.68,ENE,62,2.0,2.0,89,0.00,SCT,,0.01,336.0,WeatherDisplay:10.37,2013-06-26 21:55:00,
2013-06-26 17:00:00,74.7,71.6,29.68,East,80,1.1,1.1,90,0.00,SCT,,0.01,322.0,WeatherDisplay:10.37,2013-06-26 22:00:00,
2013-06-26 17:05:00,75.3,72.2,29.68,East,80,1.1,0.0,90,0.00,CLR,,0.01,482.0,WeatherDisplay:10.37,2013-06-26 22:05:00,
2013-06-26 17:10:00,75.8,72.3,29.68,East,80,0.0,0.2,89,0.00,CLR,,0.01,563.0,WeatherDisplay:10.37,2013-06-26 22:10:00,
2013-06-26 17:15:00,76.2,72.0,29.68,East,80,1.1,0.0,87,0.00,CLR,,0.01,594.0,WeatherDisplay:10.37,2013-06-26 22:15:00,
2013-06-26 17:20:00,76.9,72.4,29.68,East,80,1.1,1.1,86,0.00,CLR,,0.01,592.0,WeatherDisplay:10.37,2013-06-26 22:20:00,
2013-06-26 17:25:00,77.3,72.8,29.68,East,80,0.0,0.0,86,0.00,CLR,,0.01,526.0,WeatherDisplay:10.37,2013-06-26 22:25:00,
2013-06-26 17:30:00,77.6,73.1,29.67,East,80,0.0,0.0,86,0.00,CLR,,0.01,311.0,WeatherDisplay:10.37,2013-06-26 22:30:00,
2013-06-26 17:35:00,77.8,72.2,29.67,East,80,1.1,1.1,83,0.00,CLR,,0.01,123.0,WeatherDisplay:10.37,2013-06-26 22:35:00,
2013-06-26 17:40:00,77.6,71.7,29.68,East,80,2.3,2.3,82,0.00,CLR,,0.01,63.0,WeatherDisplay:10.37,2013-06-26 22:40:00,
2013-06-26 17:45:00,77.4,70.7,29.67,East,80,1.1,0.0,80,0.00,CLR,,0.01,60.0,WeatherDisplay:10.37,2013-06-26 22:45:00,
2013-06-26 17:50:00,77.1,71.9,29.68,East,80,0.0,0.0,84,0.00,CLR,,0.01,67.0,WeatherDisplay:10.37,2013-06-26 22:50:00,
2013-06-26 17:55:00,76.6,71.7,29.67,East,80,0.0,0.0,85,0.00,CLR,,0.01,65.0,WeatherDisplay:10.37,2013-06-26 22:55:00,
2013-06-26 18:00:00,76.3,71.5,29.67,East,80,1.1,0.0,85,0.00,CLR,,0.01,70.0,WeatherDisplay:10.37,2013-06-26 23:00:00,
2013-06-26 18:05:00,76.0,71.5,29.66,East,80,0.0,0.0,86,0.00,CLR,,0.01,70.0,WeatherDisplay:10.37,2013-06-26 23:05:00,
2013-06-26 18:10:00,75.8,71.7,29.66,East,80,0.0,0.0,87,0.00,CLR,,0.01,56.0,WeatherDisplay:10.37,2013-06-26 23:10:00,
2013-06-26 18:15:00,75.5,71.7,29.66,East,80,0.0,0.1,88,0.00,CLR,,0.01,46.0,WeatherDisplay:10.37,2013-06-26 23:15:00,
2013-06-26 18:20:00,75.3,71.8,29.65,East,80,0.0,0.0,89,0.00,CLR,,0.01,46.0,WeatherDisplay:10.37,2013-06-26 23:20:00,
2013-06-26 18:25:00,75.1,72.0,29.66,East,80,0.0,0.0,90,0.00,CLR,,0.01,67.0,WeatherDisplay:10.37,2013-06-26 23:25:00,
2013-06-26 18:30:00,74.9,72.1,29.66,East,80,0.0,0.0,91,0.00,CLR,,0.01,81.0,WeatherDisplay:10.37,2013-06-26 23:30:00,
2013-06-26 18:35:00,74.9,72.1,29.66,East,80,0.0,0.0,91,0.00,CLR,,0.01,88.0,WeatherDisplay:10.37,2013-06-26 23:35:00,
2013-06-26 18:40:00,74.8,72.3,29.67,East,80,0.0,0.0,92,0.00,CLR,,0.01,100.0,WeatherDisplay:10.37,2013-06-26 23:40:00,
2013-06-26 18:45:00,74.8,72.0,29.67,East,80,0.0,0.0,91,0.00,CLR,,0.01,109.0,WeatherDisplay:10.37,2013-06-26 23:45:00,
2013-06-26 18:50:00,74.7,71.9,29.67,East,80,0.0,0.0,91,0.00,CLR,,0.01,107.0,WeatherDisplay:10.37,2013-06-26 23:50:00,
2013-06-26 18:55:00,74.8,72.3,29.67,East,80,0.0,0.0,92,0.00,CLR,,0.01,118.0,WeatherDisplay:10.37,2013-06-26 23:55:00,
2013-06-26 19:01:00,74.9,72.1,29.67,East,80,0.0,0.0,91,0.00,CLR,,0.01,107.0,WeatherDisplay:10.37,2013-06-27 00:01:00,
2013-06-26 19:06:00,75.0,71.9,29.67,East,80,0.0,0.0,90,0.00,CLR,,0.01,90.0,WeatherDisplay:10.37,2013-06-27 00:06:00,
2013-06-26 19:11:00,75.1,71.6,29.68,East,80,0.0,0.0,89,0.00,CLR,,0.01,81.0,WeatherDisplay:10.37,2013-06-27 00:11:00,
2013-06-26 19:16:00,75.3,72.2,29.68,East,80,0.0,0.0,90,0.00,CLR,,0.01,62.0,WeatherDisplay:10.37,2013-06-27 00:16:00,
2013-06-26 19:21:00,75.4,71.6,29.68,East,80,1.1,0.0,88,0.00,CLR,,0.01,47.0,WeatherDisplay:10.37,2013-06-27 00:21:00,
2013-06-26 19:26:00,75.3,71.8,29.68,East,80,0.0,0.0,89,0.00,CLR,,0.01,39.0,WeatherDisplay:10.37,2013-06-27 00:26:00,
2013-06-26 19:31:00,75.1,71.6,29.68,East,80,0.0,0.0,89,0.00,CLR,,0.01,26.0,WeatherDisplay:10.37,2013-06-27 00:31:00,
2013-06-26 19:36:00,74.8,71.7,29.68,North,5,2.3,2.3,90,0.00,CLR,,0.01,32.0,WeatherDisplay:10.37,2013-06-27 00:36:00,
2013-06-26 19:41:00,74.6,71.5,29.68,NNW,329,0.0,0.0,90,0.00,CLR,,0.01,25.0,WeatherDisplay:10.37,2013-06-27 00:41:00,
2013-06-26 19:46:00,74.4,71.6,29.68,NNW,329,0.0,0.0,91,0.00,CLR,,0.01,25.0,WeatherDisplay:10.37,2013-06-27 00:46:00,
2013-06-26 19:51:00,74.1,71.3,29.68,NNW,329,0.0,0.0,91,0.00,CLR,,0.01,32.0,WeatherDisplay:10.37,2013-06-27 00:51:00,
2013-06-26 19:56:00,73.9,71.1,29.68,NNW,329,0.0,0.0,91,0.00,CLR,,0.01,14.0,WeatherDisplay:10.37,2013-06-27 00:56:00,
2013-06-26 20:01:00,73.6,71.1,29.68,NNW,329,0.0,0.0,92,0.00,FEW,,0.01,18.0,WeatherDisplay:10.37,2013-06-27 01:01:00,
2013-06-26 20:06:00,73.3,70.5,29.68,NNW,329,0.0,0.0,91,0.00,FEW,,0.01,14.0,WeatherDisplay:10.37,2013-06-27 01:06:00,
2013-06-26 20:11:00,73.2,70.7,29.68,NNW,329,0.0,0.0,92,0.00,FEW,,0.01,12.0,WeatherDisplay:10.37,2013-06-27 01:11:00,
2013-06-26 20:16:00,73.0,70.5,29.68,NNW,329,0.0,0.0,92,0.00,FEW,,0.01,16.0,WeatherDisplay:10.37,2013-06-27 01:16:00,
2013-06-26 20:21:00,72.8,70.3,29.69,NNW,329,0.0,0.0,92,0.00,FEW,,0.01,16.0,WeatherDisplay:10.37,2013-06-27 01:21:00,
2013-06-26 20:26:00,72.6,70.5,29.69,NNW,329,0.0,0.0,93,0.00,FEW,,0.01,11.0,WeatherDisplay:10.37,2013-06-27 01:26:00,
2013-06-26 20:31:00,72.4,70.3,29.69,NNW,329,0.0,0.0,93,0.00,FEW,,0.01,7.0,WeatherDisplay:10.37,2013-06-27 01:31:00,
2013-06-26 20:36:00,72.3,70.2,29.69,NNW,329,0.0,0.0,93,0.00,FEW,,0.01,5.0,WeatherDisplay:10.37,2013-06-27 01:36:00,
2013-06-26 20:41:00,72.2,70.1,29.68,NNW,329,0.0,0.0,93,0.00,FEW,,0.01,5.0,WeatherDisplay:10.37,2013-06-27 01:41:00,
2013-06-26 20:46:00,72.1,70.0,29.69,NNW,329,0.0,0.0,93,0.00,FEW,,0.01,0.0,WeatherDisplay:10.37,2013-06-27 01:46:00,
2013-06-26 20:51:00,71.9,69.8,29.69,NNW,329,0.0,0.0,93,0.00,FEW,,0.01,0.0,WeatherDisplay:10.37,2013-06-27 01:51:00,
2013-06-26 20:56:00,71.7,69.3,29.69,NNW,329,0.0,0.0,92,0.00,FEW,,0.01,0.0,WeatherDisplay:10.37,2013-06-27 01:56:00,
2013-06-26 21:01:00,71.4,69.3,29.69,NNW,329,0.0,0.0,93,0.00,FEW,,0.01,0.0,WeatherDisplay:10.37,2013-06-27 02:01:00,
2013-06-26 21:06:00,71.2,69.1,29.70,NNW,329,0.0,0.0,93,0.00,FEW,,0.01,0.0,WeatherDisplay:10.37,2013-06-27 02:06:00,
2013-06-26 21:11:00,70.9,68.8,29.71,NNW,329,0.0,0.0,93,0.00,FEW,,0.01,0.0,WeatherDisplay:10.37,2013-06-27 02:11:00,
2013-06-26 21:16:00,70.6,68.8,29.71,NNW,329,0.0,0.0,94,0.00,CLR,,0.01,0.0,WeatherDisplay:10.37,2013-06-27 02:16:00,
2013-06-26 21:21:00,70.4,68.6,29.70,NNW,329,0.0,0.0,94,0.00,CLR,,0.01,0.0,WeatherDisplay:10.37,2013-06-27 02:21:00,
2013-06-26 21:26:00,70.3,68.5,29.70,NNW,329,0.0,0.0,94,0.00,CLR,,0.01,0.0,WeatherDisplay:10.37,2013-06-27 02:26:00,
2013-06-26 21:31:00,70.3,68.5,29.71,NNW,329,0.0,0.0,94,0.00,CLR,,0.01,0.0,WeatherDisplay:10.37,2013-06-27 02:31:00,
2013-06-26 21:36:00,70.2,68.4,29.71,NNW,329,0.0,0.0,94,0.00,CLR,,0.01,0.0,WeatherDisplay:10.37,2013-06-27 02:36:00,
2013-06-26 21:41:00,70.1,68.3,29.72,NNW,329,0.0,0.0,94,0.00,CLR,,0.01,0.0,WeatherDisplay:10.37,2013-06-27 02:41:00,
2013-06-26 21:46:00,69.9,68.1,29.72,NNW,329,0.0,0.0,94,0.00,CLR,,0.01,0.0,WeatherDisplay:10.37,2013-06-27 02:46:00,
2013-06-26 21:51:00,69.9,68.4,29.72,NNW,329,0.0,0.0,95,0.00,CLR,,0.01,0.0,WeatherDisplay:10.37,2013-06-27 02:51:00,
2013-06-26 21:56:00,69.8,68.3,29.72,NNW,329,0.0,0.0,95,0.00,CLR,,0.01,0.0,WeatherDisplay:10.37,2013-06-27 02:56:00,
2013-06-26 22:01:00,69.7,68.2,29.73,NNW,329,0.0,0.0,95,0.00,CLR,,0.01,0.0,WeatherDisplay:10.37,2013-06-27 03:01:00,
2013-06-26 22:06:00,69.6,68.1,29.73,NNW,329,0.0,0.0,95,0.00,CLR,,0.01,0.0,WeatherDisplay:10.37,2013-06-27 03:06:00,
2013-06-26 22:11:00,69.5,68.0,29.73,NNW,329,0.0,0.0,95,0.00,CLR,,0.01,0.0,WeatherDisplay:10.37,2013-06-27 03:11:00,
2013-06-26 22:16:00,69.3,67.8,29.73,NNW,329,0.0,0.0,95,0.00,CLR,,0.01,0.0,WeatherDisplay:10.37,2013-06-27 03:16:00,
2013-06-26 22:21:00,69.2,67.7,29.73,NNW,329,0.0,0.0,95,0.00,CLR,,0.01,0.0,WeatherDisplay:10.37,2013-06-27 03:21:00,
2013-06-26 22:26:00,69.0,67.5,29.73,NNW,329,0.0,0.0,95,0.00,CLR,,0.01,0.0,WeatherDisplay:10.37,2013-06-27 03:26:00,
2013-06-26 22:31:00,68.7,66.9,29.73,NNW,329,0.0,0.0,94,0.00,CLR,,0.01,0.0,WeatherDisplay:10.37,2013-06-27 03:31:00,
2013-06-26 22:36:00,68.5,66.7,29.72,NNW,329,0.0,0.0,94,0.00,CLR,,0.01,0.0,WeatherDisplay:10.37,2013-06-27 03:36:00,
2013-06-26 22:41:00,68.4,66.9,29.72,NNW,329,0.0,0.0,95,0.00,CLR,,0.01,0.0,WeatherDisplay:10.37,2013-06-27 03:41:00,
2013-06-26 22:46:00,68.2,66.7,29.72,NNW,329,0.0,0.0,95,0.00,CLR,,0.01,0.0,WeatherDisplay:10.37,2013-06-27 03:46:00,
2013-06-26 22:51:00,67.9,66.4,29.73,NNW,329,0.0,0.0,95,0.00,CLR,,0.01,0.0,WeatherDisplay:10.37,2013-06-27 03:51:00,
2013-06-26 22:56:00,67.8,66.3,29.74,NNW,329,0.0,0.0,95,0.00,CLR,,0.01,0.0,WeatherDisplay:10.37,2013-06-27 03:56:00,
2013-06-26 23:01:00,67.7,66.5,29.74,NNW,329,0.0,0.0,96,0.00,CLR,,0.01,0.0,WeatherDisplay:10.37,2013-06-27 04:01:00,
2013-06-26 23:06:00,67.5,66.0,29.74,NNW,329,0.0,0.0,95,0.00,CLR,,0.01,0.0,WeatherDisplay:10.37,2013-06-27 04:06:00,
2013-06-26 23:11:00,67.3,65.8,29.74,NNW,329,0.0,0.0,95,0.00,CLR,,0.01,0.0,WeatherDisplay:10.37,2013-06-27 04:11:00,
2013-06-26 23:16:00,67.1,65.6,29.75,NNW,329,0.0,0.0,95,0.00,CLR,,0.01,0.0,WeatherDisplay:10.37,2013-06-27 04:16:00,
2013-06-26 23:21:00,66.9,65.4,29.75,NNW,329,0.0,0.0,95,0.00,CLR,,0.01,0.0,WeatherDisplay:10.37,2013-06-27 04:21:00,
2013-06-26 23:26:00,66.8,65.3,29.75,NNW,329,0.0,0.0,95,0.00,CLR,,0.01,0.0,WeatherDisplay:10.37,2013-06-27 04:26:00,
2013-06-26 23:31:00,66.6,65.1,29.75,NNW,329,0.0,0.0,95,0.00,CLR,,0.01,0.0,WeatherDisplay:10.37,2013-06-27 04:31:00,
2013-06-26 23:36:00,66.5,65.0,29.75,NNW,329,0.0,0.0,95,0.00,CLR,,0.01,0.0,WeatherDisplay:10.37,2013-06-27 04:36:00,
2013-06-26 23:41:00,66.3,64.8,29.74,NNW,329,0.0,0.0,95,0.00,CLR,,0.01,0.0,WeatherDisplay:10.37,2013-06-27 04:41:00,
2013-06-26 23:46:00,66.2,64.7,29.74,NNW,329,0.0,0.0,95,0.00,CLR,,0.01,0.0,WeatherDisplay:10.37,2013-06-27 04:46:00,
2013-06-26 23:51:00,66.0,64.5,29.74,NNW,329,0.0,0.0,95,0.00,CLR,,0.01,0.0,WeatherDisplay:10.37,2013-06-27 04:51:00,
2013-06-26 23:56:00,65.9,64.4,29.74,NNW,329,0.0,0.0,95,0.00,CLR,,0.01,0.0,WeatherDisplay:10.37,2013-06-27 04:56:00,